STARLINK-1829 (46726 NORAD) Tracking and Keplerian Element Data

This shows tracking and keplerian element data for the satellite.

Feedback or suggestion? Click here.




ElementValue
Catalog46726
NameSTARLINK-1829
Epoch Orbit609
Epoch Day328.16667824
Epoch Year2020
RAAN293.7965
Inclination53.0562
Eccentricity0.0001284
Argument of Perigee82.8973
Mean Anonmoly60.2157
Mean Motion15.62850607
Decay Rate-0.00162448
L11 46726U 20073BJ 20328.16667824 -.00162448 00000-0 -17971-2 0 9996
L22 46726 53.0562 293.7965 0001284 82.8973 60.2157 15.62850607 6097

Live tracking and technical data element details for STARLINK-1829 (NORAD 46726). STARLINK-1829 can be tracked NOW for your location showing map with azimuth and elevation plus other details from your city location.

Track the satellite on the map from your city or location and see movement details for azimuth, elevation, latitude, longitude, range, height, and movement on the map or in text.







IsCatalogInMostPopularTable: catalog: 46726, numindb: 10
Update: records affected: 1



GetName: 46726 STARLINK-1829

Hit Count: updated at: Tue, 24 Nov 2020 11:24:25 GMT